Okeechobee 6 N FAWN current weather conditions

sailwx.info

Wind from 286 at 3 knots

Air temperature 24.5° C
Dewpoint 24.3° C

Last reported at 2019-Sep-16 06:00 UTC.
Time now 2019-Sep-16 06:28 UTC

Location: N 27°20' W 080°51'.
View on Google Maps.

See reports from other nearby stations

  
Tides and Currents Weather Stations Pressure Air Temp Water Temp Dewpoint Dewpoint Depression Visibility Wind Speed Wind Dir Waves Ship Positions
date/time (UTC)wind fromknots sea level pressurealtimeterstation pressurevisibilityair tempwater tempwave heightnotes
2019-Sep-16 06:00 286 3 24.5
2019-Sep-16 05:45 289 3 24.6
2019-Sep-16 05:30 288 3 24.7
2019-Sep-16 05:15 286 4 24.8
2019-Sep-16 05:00 286 3 24.8
2019-Sep-16 04:45 280 4 24.9
2019-Sep-16 04:30 282 4 24.9
2019-Sep-16 04:15 287 4 25.1
2019-Sep-16 04:00 297 3 25.1
2019-Sep-16 03:45 298 3 25.2
2019-Sep-16 03:30 296 3 25.2
2019-Sep-16 03:15 297 3 25.2
2019-Sep-16 03:00 294 3 25.2
2019-Sep-16 02:45 301 3 25.2
2019-Sep-16 02:30 306 3 25.2
2019-Sep-16 02:15 294 3 25.1
2019-Sep-16 02:00 290 3 25.1
2019-Sep-16 01:45 292 3 25.0
2019-Sep-16 01:30 310 2 25.0
2019-Sep-16 01:15 295 2 25.1
2019-Sep-16 01:00 297 3 25.1
2019-Sep-16 00:45 295 3 25.3
2019-Sep-16 00:30 289 4 25.3
2019-Sep-16 00:15 296 2 25.3
2019-Sep-16 00:00 294 3 25.3
2019-Sep-15 23:45 299 3 25.4
2019-Sep-15 23:30 285 3 25.6
2019-Sep-15 23:15 297 3 25.8
2019-Sep-15 23:00 321 3 26.0
2019-Sep-15 22:45 337 3 26.4
2019-Sep-15 22:30 331 3 26.9
2019-Sep-15 22:15 316 4 27.0
2019-Sep-15 22:00 313 5 27.8
2019-Sep-15 21:45 311 2 28.4
2019-Sep-15 21:30 327 2 28.8
2019-Sep-15 21:15 334 1 28.8
2019-Sep-15 21:00 306 3 28.7
2019-Sep-15 20:45 293 2 28.5
2019-Sep-15 20:30 017 2 28.2
2019-Sep-15 20:15 321 4 29.4
2019-Sep-15 20:00 270 3 29.3
2019-Sep-15 19:45 257 3 28.6
2019-Sep-15 19:30 270 2 27.6
2019-Sep-15 19:15 282 4 27.3
2019-Sep-15 19:00 295 5 26.8
2019-Sep-15 18:45 291 3 26.1
2019-Sep-15 18:30 293 4 26.7
2019-Sep-15 18:15 329 4 29.1
2019-Sep-15 18:00 273 4 28.9
2019-Sep-15 17:45 299 3 28.3
2019-Sep-15 17:30 343 2 28.6
2019-Sep-15 17:15 309 4 30.6
2019-Sep-15 17:00 296 3 30.1
2019-Sep-15 16:45 326 2 29.6
2019-Sep-15 16:30 296 3 30.2
2019-Sep-15 16:15 308 3 30.3
2019-Sep-15 16:00 288 4 30.4
2019-Sep-15 15:45 339 3 29.9
2019-Sep-15 15:30 310 3 29.4
2019-Sep-15 15:15 319 3 29.1
2019-Sep-15 15:00 317 4 29.3
2019-Sep-15 14:45 337 3 28.6
2019-Sep-15 14:30 319 3 27.9
2019-Sep-15 14:15 339 3 28.0
2019-Sep-15 14:00 338 3 27.6
2019-Sep-15 13:45 342 4 27.3
2019-Sep-15 13:30 353 3 27.0
2019-Sep-15 13:15 334 3 26.5
2019-Sep-15 13:00 326 3 26.0
2019-Sep-15 12:45 313 3 25.6
2019-Sep-15 12:30 306 2 25.4
2019-Sep-15 12:15 294 3 24.9
2019-Sep-15 12:00 301 3 24.5
2019-Sep-15 11:45 308 3 24.2
2019-Sep-15 11:30 310 3 24.1
2019-Sep-15 11:15 308 3 23.9
2019-Sep-15 11:00 292 2 23.8
2019-Sep-15 10:45 298 2 23.8
2019-Sep-15 10:30 297 3 23.8
2019-Sep-15 10:15 311 2 23.7
2019-Sep-15 10:00 301 2 23.6
2019-Sep-15 09:45 290 2 23.5
2019-Sep-15 09:30 284 3 23.5
2019-Sep-15 09:15 282 2 23.6
2019-Sep-15 09:00 283 3 23.7
2019-Sep-15 08:45 305 2 23.8
2019-Sep-15 08:30 309 2 23.8
2019-Sep-15 08:15 301 2 23.9
2019-Sep-15 08:00 307 2 23.9
2019-Sep-15 07:45 308 2 23.8
2019-Sep-15 07:30 313 2 23.7
2019-Sep-15 07:15 303 1 23.6
2019-Sep-15 07:00 311 1 23.6
2019-Sep-15 06:45 291 2 23.5
2019-Sep-15 06:30 284 2 23.5
2019-Sep-15 06:15 290 2 23.5
2019-Sep-15 06:00 308 1 23.6
2019-Sep-15 05:45 283 3 23.5
2019-Sep-15 05:30 275 3 23.7
2019-Sep-15 05:15 294 2 23.8
2019-Sep-15 05:00 305 1 23.9
2019-Sep-15 04:45 296 1 23.9
2019-Sep-15 04:30 306 2 24.0
2019-Sep-15 04:15 288 3 24.0
2019-Sep-15 04:00 294 2 24.1
2019-Sep-15 03:45 287 1 24.1
2019-Sep-15 03:30 259 2 24.2
2019-Sep-15 03:15 234 2 24.2
2019-Sep-15 03:00 010 0 24.1
2019-Sep-15 02:45 337 1 24.1
2019-Sep-15 02:30 329 0 24.1
2019-Sep-15 02:15 327 0 24.2
2019-Sep-15 02:00 027 0 24.2
2019-Sep-15 01:45 331 1 24.3
2019-Sep-15 01:30 356 1 24.5
2019-Sep-15 01:15 070 2 24.7
2019-Sep-15 01:00 103 4 24.8
2019-Sep-15 00:45 063 2 24.9
2019-Sep-15 00:30 069 3 25.4
2019-Sep-15 00:15 044 2 26.4
2019-Sep-15 00:00 061 1 26.6
2019-Sep-14 23:45 057 1 26.9
2019-Sep-14 23:30 056 2 27.1
2019-Sep-14 23:15 064 2 27.4
2019-Sep-14 23:00 066 2 27.4
2019-Sep-14 22:45 070 2 27.6
2019-Sep-14 22:30 076 3 27.7
2019-Sep-14 22:15 081 4 27.9
2019-Sep-14 22:00 080 4 28.3
2019-Sep-14 21:45 076 5 28.5
2019-Sep-14 21:30 086 5 28.7
2019-Sep-14 21:15 081 5 28.9
2019-Sep-14 21:00 067 4 28.8
2019-Sep-14 20:45 063 5 28.4
2019-Sep-14 20:30 065 5 27.9
2019-Sep-14 20:15 065 5 27.0
2019-Sep-14 20:00 070 7 27.1
2019-Sep-14 19:45 069 6 29.9
2019-Sep-14 19:30 072 6 30.1
2019-Sep-14 19:15 067 7 30.5
2019-Sep-14 19:00 065 7 31.0
2019-Sep-14 18:45 066 7 30.9
2019-Sep-14 18:30 069 7 31.3
2019-Sep-14 18:15 071 7 30.7
2019-Sep-14 18:00 061 6 30.1
2019-Sep-14 17:45 057 7 30.2
2019-Sep-14 17:30 060 4 28.8
2019-Sep-14 17:15 056 5 28.5
2019-Sep-14 17:00 048 5 30.6
2019-Sep-14 16:45 061 5 29.9
2019-Sep-14 16:30 061 6 30.6
2019-Sep-14 16:15 070 7 29.8
2019-Sep-14 16:00 071 6 29.8
2019-Sep-14 15:45 068 6 29.4
2019-Sep-14 15:30 061 5 28.8
2019-Sep-14 15:15 062 4 27.7
2019-Sep-14 15:00 074 6 28.3
2019-Sep-14 14:45 064 6 29.1
2019-Sep-14 14:30 065 5 29.2
2019-Sep-14 14:15 067 7 28.4
2019-Sep-14 14:00 066 6 27.9
2019-Sep-14 13:45 054 3 27.2
2019-Sep-14 13:30 033 1 27.2
2019-Sep-14 13:15 338 2 26.4
2019-Sep-14 13:00 323 1 25.6
2019-Sep-14 12:45 028 1 25.0
2019-Sep-14 12:30 123 2 24.8
2019-Sep-14 12:15 068 1 24.6
2019-Sep-14 12:00 029 2 24.4
2019-Sep-14 11:45 016 1 24.2
2019-Sep-14 11:30 356 1 24.1
2019-Sep-14 11:15 017 1 23.9
2019-Sep-14 11:00 001 1 23.9
2019-Sep-14 10:45 016 1 23.9
2019-Sep-14 10:30 23.9
2019-Sep-14 10:15 025 1 24.1
2019-Sep-14 10:00 033 1 24.1
2019-Sep-14 09:45 020 1 24.1
2019-Sep-14 09:30 022 1 23.8
2019-Sep-14 09:15 324 0 23.9
2019-Sep-14 09:00 005 0 24.0
2019-Sep-14 08:45 018 1 24.2
2019-Sep-14 08:30 036 1 24.4
2019-Sep-14 08:15 036 1 24.5
2019-Sep-14 08:00 050 2 24.4
2019-Sep-14 07:45 033 2 23.9
2019-Sep-14 07:30 033 1 23.7
2019-Sep-14 07:15 026 1 23.6
2019-Sep-14 07:00 331 1 23.6
2019-Sep-14 06:45 348 0 23.6
2019-Sep-14 06:30 331 0 23.8
2019-Sep-14 06:15 017 0 24.0
2019-Sep-14 06:00 019 1 24.2